#datetime,building,power
2023-10-30T00:00:00,mcc,44.01
2023-10-30T00:01:00,mcc,44.35
2023-10-30T00:02:00,mcc,45.83
2023-10-30T00:03:00,mcc,45.93
2023-10-30T00:04:00,mcc,45.58
2023-10-30T00:05:00,mcc,42.73
2023-10-30T00:06:00,mcc,39.74
2023-10-30T00:07:00,mcc,38.78
2023-10-30T00:08:00,mcc,42.27
2023-10-30T00:09:00,mcc,42.60
2023-10-30T00:10:00,mcc,41.76
2023-10-30T00:11:00,mcc,41.30
2023-10-30T00:12:00,mcc,42.25
2023-10-30T00:13:00,mcc,40.44
2023-10-30T00:14:00,mcc,40.20
2023-10-30T00:15:00,mcc,48.85
2023-10-30T00:16:00,mcc,36.95
2023-10-30T00:17:00,mcc,38.53
2023-10-30T00:18:00,mcc,40.00
2023-10-30T00:19:00,mcc,38.07
2023-10-30T00:20:00,mcc,35.84
2023-10-30T00:21:00,mcc,39.25
2023-10-30T00:22:00,mcc,37.39
2023-10-30T00:23:00,mcc,37.27
2023-10-30T00:24:00,mcc,38.07
2023-10-30T00:25:00,mcc,38.17
2023-10-30T00:26:00,mcc,38.27
2023-10-30T00:27:00,mcc,36.35
2023-10-30T00:28:00,mcc,41.16
2023-10-30T00:29:00,mcc,36.44
2023-10-30T00:30:00,mcc,35.39
2023-10-30T00:31:00,mcc,37.62
2023-10-30T00:32:00,mcc,37.47
2023-10-30T00:33:00,mcc,39.32
2023-10-30T00:34:00,mcc,41.92
2023-10-30T00:35:00,mcc,37.72
2023-10-30T00:36:00,mcc,38.09
2023-10-30T00:37:00,mcc,37.42
2023-10-30T00:38:00,mcc,37.78
2023-10-30T00:39:00,mcc,37.82
2023-10-30T00:40:00,mcc,38.06
2023-10-30T00:41:00,mcc,37.09
2023-10-30T00:42:00,mcc,37.90
2023-10-30T00:43:00,mcc,38.48
2023-10-30T00:44:00,mcc,40.32
2023-10-30T00:45:00,mcc,38.00
2023-10-30T00:46:00,mcc,38.32
2023-10-30T00:47:00,mcc,41.95
2023-10-30T00:48:00,mcc,38.36
2023-10-30T00:49:00,mcc,33.64
2023-10-30T00:50:00,mcc,34.16
2023-10-30T00:51:00,mcc,45.55
2023-10-30T00:52:00,mcc,33.25
2023-10-30T00:53:00,mcc,41.98
2023-10-30T00:54:00,mcc,36.72
2023-10-30T00:55:00,mcc,34.57
2023-10-30T00:56:00,mcc,33.89
2023-10-30T00:57:00,mcc,34.74
2023-10-30T00:58:00,mcc,34.40
2023-10-30T00:59:00,mcc,35.53
2023-10-30T01:00:00,mcc,36.96
2023-10-30T01:01:00,mcc,35.30
2023-10-30T01:02:00,mcc,35.29
2023-10-30T01:03:00,mcc,38.17
2023-10-30T01:04:00,mcc,41.58
2023-10-30T01:05:00,mcc,35.05
2023-10-30T01:06:00,mcc,35.22
2023-10-30T01:07:00,mcc,33.62
2023-10-30T01:08:00,mcc,34.05
2023-10-30T01:09:00,mcc,36.42
2023-10-30T01:10:00,mcc,35.13
2023-10-30T01:11:00,mcc,34.83
2023-10-30T01:12:00,mcc,35.18
2023-10-30T01:13:00,mcc,50.33
2023-10-30T01:14:00,mcc,49.20
2023-10-30T01:15:00,mcc,45.22
2023-10-30T01:16:00,mcc,48.88
2023-10-30T01:17:00,mcc,37.67
2023-10-30T01:18:00,mcc,36.41
2023-10-30T01:19:00,mcc,37.84
2023-10-30T01:20:00,mcc,35.34
2023-10-30T01:21:00,mcc,36.26
2023-10-30T01:22:00,mcc,34.01
2023-10-30T01:23:00,mcc,33.77
2023-10-30T01:24:00,mcc,34.52
2023-10-30T01:25:00,mcc,35.39
2023-10-30T01:26:00,mcc,36.56
2023-10-30T01:27:00,mcc,35.08
2023-10-30T01:28:00,mcc,35.97
2023-10-30T01:29:00,mcc,33.96
2023-10-30T01:30:00,mcc,34.84
2023-10-30T01:31:00,mcc,35.55
2023-10-30T01:32:00,mcc,46.17
2023-10-30T01:33:00,mcc,39.60
2023-10-30T01:34:00,mcc,38.36
2023-10-30T01:35:00,mcc,40.24
2023-10-30T01:36:00,mcc,37.25
2023-10-30T01:37:00,mcc,41.76
2023-10-30T01:38:00,mcc,37.46
2023-10-30T01:39:00,mcc,38.05
2023-10-30T01:40:00,mcc,37.75
2023-10-30T01:41:00,mcc,36.61
2023-10-30T01:42:00,mcc,37.09
2023-10-30T01:43:00,mcc,35.72
2023-10-30T01:44:00,mcc,37.78
2023-10-30T01:45:00,mcc,34.95
2023-10-30T01:46:00,mcc,37.90
2023-10-30T01:47:00,mcc,35.36
2023-10-30T01:48:00,mcc,37.31
2023-10-30T01:49:00,mcc,33.30
2023-10-30T01:50:00,mcc,33.07
2023-10-30T01:51:00,mcc,34.94
2023-10-30T01:52:00,mcc,34.48
2023-10-30T01:53:00,mcc,34.42
2023-10-30T01:54:00,mcc,34.12
2023-10-30T01:55:00,mcc,44.82
2023-10-30T01:56:00,mcc,32.79
2023-10-30T01:57:00,mcc,33.20
2023-10-30T01:58:00,mcc,34.00
2023-10-30T01:59:00,mcc,41.73
2023-10-30T02:00:00,mcc,42.38
2023-10-30T02:01:00,mcc,46.17
2023-10-30T02:02:00,mcc,42.08
2023-10-30T02:03:00,mcc,34.53
2023-10-30T02:04:00,mcc,36.07
2023-10-30T02:05:00,mcc,34.55
2023-10-30T02:06:00,mcc,34.46
2023-10-30T02:07:00,mcc,35.96
2023-10-30T02:08:00,mcc,34.87
2023-10-30T02:09:00,mcc,34.75
2023-10-30T02:10:00,mcc,45.11
2023-10-30T02:11:00,mcc,37.35
2023-10-30T02:12:00,mcc,37.75
2023-10-30T02:13:00,mcc,39.02
2023-10-30T02:14:00,mcc,36.11
2023-10-30T02:15:00,mcc,34.98
2023-10-30T02:16:00,mcc,32.57
2023-10-30T02:17:00,mcc,31.29
2023-10-30T02:18:00,mcc,31.96
2023-10-30T02:19:00,mcc,31.97
2023-10-30T02:20:00,mcc,32.61
2023-10-30T02:21:00,mcc,31.65
2023-10-30T02:22:00,mcc,31.94
2023-10-30T02:23:00,mcc,34.39
2023-10-30T02:24:00,mcc,32.08
2023-10-30T02:25:00,mcc,34.86
2023-10-30T02:26:00,mcc,38.63
2023-10-30T02:27:00,mcc,36.76
2023-10-30T02:28:00,mcc,34.51
2023-10-30T02:29:00,mcc,34.06
2023-10-30T02:30:00,mcc,40.39
2023-10-30T02:31:00,mcc,32.28
2023-10-30T02:32:00,mcc,35.60
2023-10-30T02:33:00,mcc,33.54
2023-10-30T02:34:00,mcc,34.03
2023-10-30T02:35:00,mcc,35.26
2023-10-30T02:36:00,mcc,32.36
2023-10-30T02:37:00,mcc,34.38
2023-10-30T02:38:00,mcc,35.32
2023-10-30T02:39:00,mcc,39.68
2023-10-30T02:40:00,mcc,38.66
2023-10-30T02:41:00,mcc,35.48
2023-10-30T02:42:00,mcc,36.88
2023-10-30T02:43:00,mcc,34.80
2023-10-30T02:44:00,mcc,34.66
2023-10-30T02:45:00,mcc,36.83
2023-10-30T02:46:00,mcc,35.02
2023-10-30T02:47:00,mcc,35.59
2023-10-30T02:48:00,mcc,36.36
2023-10-30T02:49:00,mcc,34.23
2023-10-30T02:50:00,mcc,32.19
2023-10-30T02:51:00,mcc,33.45
2023-10-30T02:52:00,mcc,31.49
2023-10-30T02:53:00,mcc,37.17
2023-10-30T02:54:00,mcc,45.33
2023-10-30T02:55:00,mcc,34.38
2023-10-30T02:56:00,mcc,34.19
2023-10-30T02:57:00,mcc,34.11
2023-10-30T02:58:00,mcc,35.52
2023-10-30T02:59:00,mcc,34.13
2023-10-30T03:00:00,mcc,34.49
2023-10-30T03:01:00,mcc,34.95
2023-10-30T03:02:00,mcc,33.09
2023-10-30T03:03:00,mcc,32.61
2023-10-30T03:04:00,mcc,36.18
2023-10-30T03:05:00,mcc,34.60
2023-10-30T03:06:00,mcc,36.06
2023-10-30T03:07:00,mcc,36.61
2023-10-30T03:08:00,mcc,33.63
2023-10-30T03:09:00,mcc,33.90
2023-10-30T03:10:00,mcc,37.57
2023-10-30T03:11:00,mcc,44.62
2023-10-30T03:12:00,mcc,35.25
2023-10-30T03:13:00,mcc,35.74
2023-10-30T03:14:00,mcc,36.16
2023-10-30T03:15:00,mcc,35.94
2023-10-30T03:16:00,mcc,33.44
2023-10-30T03:17:00,mcc,34.17
2023-10-30T03:18:00,mcc,31.60
2023-10-30T03:19:00,mcc,34.09
2023-10-30T03:20:00,mcc,32.94
2023-10-30T03:21:00,mcc,35.30
2023-10-30T03:22:00,mcc,33.64
2023-10-30T03:23:00,mcc,35.22
2023-10-30T03:24:00,mcc,34.15
2023-10-30T03:25:00,mcc,34.82
2023-10-30T03:26:00,mcc,36.77
2023-10-30T03:27:00,mcc,34.05
2023-10-30T03:28:00,mcc,33.07
2023-10-30T03:29:00,mcc,31.83
2023-10-30T03:30:00,mcc,34.54
2023-10-30T03:31:00,mcc,31.84
2023-10-30T03:32:00,mcc,34.86
2023-10-30T03:33:00,mcc,37.27
2023-10-30T03:34:00,mcc,35.14
2023-10-30T03:35:00,mcc,33.78
2023-10-30T03:36:00,mcc,37.22
2023-10-30T03:37:00,mcc,36.12
2023-10-30T03:38:00,mcc,35.03
2023-10-30T03:39:00,mcc,38.70
2023-10-30T03:40:00,mcc,37.50
2023-10-30T03:41:00,mcc,37.85
2023-10-30T03:42:00,mcc,39.72
2023-10-30T03:43:00,mcc,35.64
2023-10-30T03:44:00,mcc,35.35
2023-10-30T03:45:00,mcc,35.84
2023-10-30T03:46:00,mcc,33.95
2023-10-30T03:47:00,mcc,32.38
2023-10-30T03:48:00,mcc,32.79
2023-10-30T03:49:00,mcc,32.66
2023-10-30T03:50:00,mcc,42.22
2023-10-30T03:51:00,mcc,34.03
2023-10-30T03:52:00,mcc,45.81
2023-10-30T03:53:00,mcc,46.18
2023-10-30T03:54:00,mcc,34.40
2023-10-30T03:55:00,mcc,35.42
2023-10-30T03:56:00,mcc,34.05
2023-10-30T03:57:00,mcc,32.71
2023-10-30T03:58:00,mcc,35.33
2023-10-30T03:59:00,mcc,33.46
2023-10-30T04:00:00,mcc,36.07
2023-10-30T04:01:00,mcc,37.41
2023-10-30T04:02:00,mcc,35.17
2023-10-30T04:03:00,mcc,35.65
2023-10-30T04:04:00,mcc,37.97
2023-10-30T04:05:00,mcc,36.90
2023-10-30T04:06:00,mcc,36.98
2023-10-30T04:07:00,mcc,37.22
2023-10-30T04:08:00,mcc,38.73
2023-10-30T04:09:00,mcc,35.38
2023-10-30T04:10:00,mcc,36.72
2023-10-30T04:11:00,mcc,38.52
2023-10-30T04:12:00,mcc,36.93
2023-10-30T04:13:00,mcc,36.04
2023-10-30T04:14:00,mcc,38.37
2023-10-30T04:15:00,mcc,34.74
2023-10-30T04:16:00,mcc,36.81
2023-10-30T04:17:00,mcc,35.24
2023-10-30T04:18:00,mcc,35.27
2023-10-30T04:19:00,mcc,38.42
2023-10-30T04:20:00,mcc,37.67
2023-10-30T04:21:00,mcc,37.15
2023-10-30T04:22:00,mcc,36.43
2023-10-30T04:23:00,mcc,35.14
2023-10-30T04:24:00,mcc,38.66
2023-10-30T04:25:00,mcc,34.70
2023-10-30T04:26:00,mcc,35.16
2023-10-30T04:27:00,mcc,37.22
2023-10-30T04:28:00,mcc,35.48
2023-10-30T04:29:00,mcc,44.52
2023-10-30T04:30:00,mcc,38.16
2023-10-30T04:31:00,mcc,35.89
2023-10-30T04:32:00,mcc,34.98
2023-10-30T04:33:00,mcc,39.87
2023-10-30T04:34:00,mcc,38.96
2023-10-30T04:35:00,mcc,36.39
2023-10-30T04:36:00,mcc,35.75
2023-10-30T04:37:00,mcc,38.66
2023-10-30T04:38:00,mcc,38.41
2023-10-30T04:39:00,mcc,38.68
2023-10-30T04:40:00,mcc,40.57
2023-10-30T04:41:00,mcc,38.54
2023-10-30T04:42:00,mcc,34.76
2023-10-30T04:43:00,mcc,35.22
2023-10-30T04:44:00,mcc,35.60
2023-10-30T04:45:00,mcc,35.06
2023-10-30T04:46:00,mcc,33.95
2023-10-30T04:47:00,mcc,35.42
2023-10-30T04:48:00,mcc,36.33
2023-10-30T04:49:00,mcc,36.10
2023-10-30T04:50:00,mcc,36.29
2023-10-30T04:51:00,mcc,34.81
2023-10-30T04:52:00,mcc,37.06
2023-10-30T04:53:00,mcc,37.36
2023-10-30T04:54:00,mcc,34.18
2023-10-30T04:55:00,mcc,34.52
2023-10-30T04:56:00,mcc,35.23
2023-10-30T04:57:00,mcc,32.06
2023-10-30T04:58:00,mcc,33.30
2023-10-30T04:59:00,mcc,44.87
2023-10-30T05:00:00,mcc,45.93
2023-10-30T05:01:00,mcc,33.22
2023-10-30T05:02:00,mcc,34.42
2023-10-30T05:03:00,mcc,33.86
2023-10-30T05:04:00,mcc,35.46
2023-10-30T05:05:00,mcc,36.54
2023-10-30T05:06:00,mcc,37.73
2023-10-30T05:07:00,mcc,37.93
2023-10-30T05:08:00,mcc,36.82
2023-10-30T05:09:00,mcc,37.48
2023-10-30T05:10:00,mcc,37.39
2023-10-30T05:11:00,mcc,47.51
2023-10-30T05:12:00,mcc,48.09
2023-10-30T05:13:00,mcc,46.48
2023-10-30T05:14:00,mcc,46.08
2023-10-30T05:15:00,mcc,37.67
2023-10-30T05:16:00,mcc,34.61
2023-10-30T05:17:00,mcc,35.29
2023-10-30T05:18:00,mcc,35.72
2023-10-30T05:19:00,mcc,38.39
2023-10-30T05:20:00,mcc,35.38
2023-10-30T05:21:00,mcc,37.04
2023-10-30T05:22:00,mcc,37.62
2023-10-30T05:23:00,mcc,35.15
2023-10-30T05:24:00,mcc,33.95
2023-10-30T05:25:00,mcc,36.05
2023-10-30T05:26:00,mcc,33.16
2023-10-30T05:27:00,mcc,42.33
2023-10-30T05:28:00,mcc,45.34
2023-10-30T05:29:00,mcc,35.48
2023-10-30T05:30:00,mcc,34.50
2023-10-30T05:31:00,mcc,36.55
2023-10-30T05:32:00,mcc,35.72
2023-10-30T05:33:00,mcc,35.71
2023-10-30T05:34:00,mcc,36.51
2023-10-30T05:35:00,mcc,38.66
2023-10-30T05:36:00,mcc,35.39
2023-10-30T05:37:00,mcc,36.04
2023-10-30T05:38:00,mcc,39.09
2023-10-30T05:39:00,mcc,38.04
2023-10-30T05:40:00,mcc,37.83
2023-10-30T05:41:00,mcc,51.92
2023-10-30T05:42:00,mcc,38.75
2023-10-30T05:43:00,mcc,38.31
2023-10-30T05:44:00,mcc,40.53
2023-10-30T05:45:00,mcc,39.74
2023-10-30T05:46:00,mcc,37.80
2023-10-30T05:47:00,mcc,44.64
2023-10-30T05:48:00,mcc,38.03
2023-10-30T05:49:00,mcc,37.95
2023-10-30T05:50:00,mcc,36.96
2023-10-30T05:51:00,mcc,38.26
2023-10-30T05:52:00,mcc,33.32
2023-10-30T05:53:00,mcc,33.07
2023-10-30T05:54:00,mcc,34.43
2023-10-30T05:55:00,mcc,33.51
2023-10-30T05:56:00,mcc,34.24
2023-10-30T05:57:00,mcc,33.75
2023-10-30T05:58:00,mcc,52.91
2023-10-30T05:59:00,mcc,41.98
2023-10-30T06:00:00,mcc,44.41
2023-10-30T06:01:00,mcc,45.52
2023-10-30T06:02:00,mcc,39.59
2023-10-30T06:03:00,mcc,38.02
2023-10-30T06:04:00,mcc,41.74
2023-10-30T06:05:00,mcc,36.63
2023-10-30T06:06:00,mcc,37.49
2023-10-30T06:07:00,mcc,42.33
2023-10-30T06:08:00,mcc,36.29
2023-10-30T06:09:00,mcc,35.79
2023-10-30T06:10:00,mcc,46.39
2023-10-30T06:11:00,mcc,44.43
2023-10-30T06:12:00,mcc,47.37
2023-10-30T06:13:00,mcc,45.42
2023-10-30T06:14:00,mcc,45.94
2023-10-30T06:15:00,mcc,45.31
2023-10-30T06:16:00,mcc,46.64
2023-10-30T06:17:00,mcc,45.18
2023-10-30T06:18:00,mcc,43.29
2023-10-30T06:19:00,mcc,44.05
2023-10-30T06:20:00,mcc,45.79
2023-10-30T06:21:00,mcc,42.56
2023-10-30T06:22:00,mcc,44.58
2023-10-30T06:23:00,mcc,45.80
2023-10-30T06:24:00,mcc,43.36
2023-10-30T06:25:00,mcc,44.66
2023-10-30T06:26:00,mcc,53.99
2023-10-30T06:27:00,mcc,46.09
2023-10-30T06:28:00,mcc,43.81
2023-10-30T06:29:00,mcc,44.96
2023-10-30T06:30:00,mcc,47.12
2023-10-30T06:31:00,mcc,45.04
2023-10-30T06:32:00,mcc,45.72
2023-10-30T06:33:00,mcc,49.04
2023-10-30T06:34:00,mcc,65.35
2023-10-30T06:35:00,mcc,60.69
2023-10-30T06:36:00,mcc,61.54
2023-10-30T06:37:00,mcc,56.28
2023-10-30T06:38:00,mcc,56.22
2023-10-30T06:39:00,mcc,58.27
2023-10-30T06:40:00,mcc,63.91
2023-10-30T06:41:00,mcc,63.49
2023-10-30T06:42:00,mcc,62.22
2023-10-30T06:43:00,mcc,66.52
2023-10-30T06:44:00,mcc,63.24
2023-10-30T06:45:00,mcc,62.50
2023-10-30T06:46:00,mcc,71.66
2023-10-30T06:47:00,mcc,58.51
2023-10-30T06:48:00,mcc,58.84
2023-10-30T06:49:00,mcc,49.61
2023-10-30T06:50:00,mcc,49.41
2023-10-30T06:51:00,mcc,49.80
2023-10-30T06:52:00,mcc,48.95
2023-10-30T06:53:00,mcc,49.08
2023-10-30T06:54:00,mcc,50.11
2023-10-30T06:55:00,mcc,52.55
2023-10-30T06:56:00,mcc,53.74
2023-10-30T06:57:00,mcc,52.72
2023-10-30T06:58:00,mcc,52.03
2023-10-30T06:59:00,mcc,58.41
2023-10-30T07:00:00,mcc,55.51
2023-10-30T07:01:00,mcc,59.01
2023-10-30T07:02:00,mcc,65.99
2023-10-30T07:03:00,mcc,66.27
2023-10-30T07:04:00,mcc,62.41
2023-10-30T07:05:00,mcc,68.59
2023-10-30T07:06:00,mcc,56.43
2023-10-30T07:07:00,mcc,72.40
2023-10-30T07:08:00,mcc,62.64
2023-10-30T07:09:00,mcc,65.19
2023-10-30T07:10:00,mcc,74.24
2023-10-30T07:11:00,mcc,69.79
2023-10-30T07:12:00,mcc,63.71
2023-10-30T07:13:00,mcc,66.06
2023-10-30T07:14:00,mcc,66.16
2023-10-30T07:15:00,mcc,75.84
2023-10-30T07:16:00,mcc,66.81
2023-10-30T07:17:00,mcc,77.61
2023-10-30T07:18:00,mcc,64.88
2023-10-30T07:19:00,mcc,73.98
2023-10-30T07:20:00,mcc,67.94
2023-10-30T07:21:00,mcc,64.39
2023-10-30T07:22:00,mcc,66.41
2023-10-30T07:23:00,mcc,65.55
2023-10-30T07:24:00,mcc,73.54
2023-10-30T07:25:00,mcc,74.39
2023-10-30T07:26:00,mcc,73.92
2023-10-30T07:27:00,mcc,72.05
2023-10-30T07:28:00,mcc,63.04
2023-10-30T07:29:00,mcc,66.41
2023-10-30T07:30:00,mcc,64.72
2023-10-30T07:31:00,mcc,72.87
2023-10-30T07:32:00,mcc,71.94
2023-10-30T07:33:00,mcc,62.96
2023-10-30T07:34:00,mcc,62.21
2023-10-30T07:35:00,mcc,64.41
2023-10-30T07:36:00,mcc,65.50
2023-10-30T07:37:00,mcc,66.31
2023-10-30T07:38:00,mcc,82.49
2023-10-30T07:39:00,mcc,67.13
2023-10-30T07:40:00,mcc,86.08
2023-10-30T07:41:00,mcc,75.47
2023-10-30T07:42:00,mcc,74.51
2023-10-30T07:43:00,mcc,75.20
2023-10-30T07:44:00,mcc,66.14
2023-10-30T07:45:00,mcc,61.90
2023-10-30T07:46:00,mcc,64.21
2023-10-30T07:47:00,mcc,71.45
2023-10-30T07:48:00,mcc,70.68
2023-10-30T07:49:00,mcc,61.22
2023-10-30T07:50:00,mcc,61.95
2023-10-30T07:51:00,mcc,61.97
2023-10-30T07:52:00,mcc,69.65
2023-10-30T07:53:00,mcc,61.29
2023-10-30T07:54:00,mcc,66.34
2023-10-30T07:55:00,mcc,61.77
2023-10-30T07:56:00,mcc,59.16
2023-10-30T07:57:00,mcc,57.39
2023-10-30T07:58:00,mcc,58.64
2023-10-30T07:59:00,mcc,58.66
2023-10-30T08:00:00,mcc,59.74
2023-10-30T08:01:00,mcc,62.20
2023-10-30T08:02:00,mcc,73.85
2023-10-30T08:03:00,mcc,60.20
2023-10-30T08:04:00,mcc,82.78
2023-10-30T08:05:00,mcc,67.62
2023-10-30T08:06:00,mcc,62.71
2023-10-30T08:07:00,mcc,66.47
2023-10-30T08:08:00,mcc,66.06
2023-10-30T08:09:00,mcc,63.48
2023-10-30T08:10:00,mcc,69.27
2023-10-30T08:11:00,mcc,63.08
2023-10-30T08:12:00,mcc,77.93
2023-10-30T08:13:00,mcc,60.28
2023-10-30T08:14:00,mcc,67.10
2023-10-30T08:15:00,mcc,59.17
2023-10-30T08:16:00,mcc,71.02
2023-10-30T08:17:00,mcc,72.66
2023-10-30T08:18:00,mcc,60.96
2023-10-30T08:19:00,mcc,60.92
2023-10-30T08:20:00,mcc,61.44
2023-10-30T08:21:00,mcc,57.91
2023-10-30T08:22:00,mcc,57.53
2023-10-30T08:23:00,mcc,80.87
2023-10-30T08:24:00,mcc,60.19
2023-10-30T08:25:00,mcc,60.73
2023-10-30T08:26:00,mcc,63.94
2023-10-30T08:27:00,mcc,61.99
2023-10-30T08:28:00,mcc,61.69
2023-10-30T08:29:00,mcc,71.05
2023-10-30T08:30:00,mcc,63.35
2023-10-30T08:31:00,mcc,62.29
2023-10-30T08:32:00,mcc,65.61
2023-10-30T08:33:00,mcc,62.24
2023-10-30T08:34:00,mcc,65.70
2023-10-30T08:35:00,mcc,72.53
2023-10-30T08:36:00,mcc,58.87
2023-10-30T08:37:00,mcc,59.50
2023-10-30T08:38:00,mcc,62.62
2023-10-30T08:39:00,mcc,60.27
2023-10-30T08:40:00,mcc,63.54
2023-10-30T08:41:00,mcc,69.19
2023-10-30T08:42:00,mcc,63.76
2023-10-30T08:43:00,mcc,74.65
2023-10-30T08:44:00,mcc,72.31
2023-10-30T08:45:00,mcc,72.28
2023-10-30T08:46:00,mcc,70.06
2023-10-30T08:47:00,mcc,74.22
2023-10-30T08:48:00,mcc,72.25
2023-10-30T08:49:00,mcc,72.53
2023-10-30T08:50:00,mcc,73.62
2023-10-30T08:51:00,mcc,70.98
2023-10-30T08:52:00,mcc,75.76
2023-10-30T08:53:00,mcc,72.26
2023-10-30T08:54:00,mcc,81.81
2023-10-30T08:55:00,mcc,67.89
2023-10-30T08:56:00,mcc,66.34
2023-10-30T08:57:00,mcc,78.72
2023-10-30T08:58:00,mcc,80.23
2023-10-30T08:59:00,mcc,84.52
2023-10-30T09:00:00,mcc,78.57
2023-10-30T09:01:00,mcc,75.23
2023-10-30T09:02:00,mcc,73.95
2023-10-30T09:03:00,mcc,68.83
2023-10-30T09:04:00,mcc,64.37
2023-10-30T09:05:00,mcc,72.60
2023-10-30T09:06:00,mcc,67.87
2023-10-30T09:07:00,mcc,80.45
2023-10-30T09:08:00,mcc,61.88
2023-10-30T09:09:00,mcc,62.13
2023-10-30T09:10:00,mcc,60.78
2023-10-30T09:11:00,mcc,61.67
2023-10-30T09:12:00,mcc,83.73
2023-10-30T09:13:00,mcc,78.55
2023-10-30T09:14:00,mcc,79.54
2023-10-30T09:15:00,mcc,84.03
2023-10-30T09:16:00,mcc,59.79
2023-10-30T09:17:00,mcc,65.52
2023-10-30T09:18:00,mcc,64.10
2023-10-30T09:19:00,mcc,69.38
2023-10-30T09:20:00,mcc,70.77
2023-10-30T09:21:00,mcc,64.54
2023-10-30T09:22:00,mcc,69.71
2023-10-30T09:23:00,mcc,68.74
2023-10-30T09:24:00,mcc,67.65
2023-10-30T09:25:00,mcc,67.05
2023-10-30T09:26:00,mcc,61.62
2023-10-30T09:27:00,mcc,63.83
2023-10-30T09:28:00,mcc,62.90
2023-10-30T09:29:00,mcc,65.91
2023-10-30T09:30:00,mcc,75.67
2023-10-30T09:31:00,mcc,73.31
2023-10-30T09:32:00,mcc,55.54
2023-10-30T09:33:00,mcc,54.66
2023-10-30T09:34:00,mcc,58.05
2023-10-30T09:35:00,mcc,61.20
2023-10-30T09:36:00,mcc,73.69
2023-10-30T09:37:00,mcc,63.45
2023-10-30T09:38:00,mcc,58.67
2023-10-30T09:39:00,mcc,58.83
2023-10-30T09:40:00,mcc,57.55
2023-10-30T09:41:00,mcc,61.42
2023-10-30T09:42:00,mcc,66.86
2023-10-30T09:43:00,mcc,67.90
2023-10-30T09:44:00,mcc,57.74
2023-10-30T09:45:00,mcc,56.74
2023-10-30T09:46:00,mcc,54.81
2023-10-30T09:47:00,mcc,56.37
2023-10-30T09:48:00,mcc,69.53
2023-10-30T09:49:00,mcc,66.39
2023-10-30T09:50:00,mcc,58.69
2023-10-30T09:51:00,mcc,61.68
2023-10-30T09:52:00,mcc,76.24
2023-10-30T09:53:00,mcc,65.82
2023-10-30T09:54:00,mcc,72.51
2023-10-30T09:55:00,mcc,73.04
2023-10-30T09:56:00,mcc,66.38
2023-10-30T09:57:00,mcc,63.43
2023-10-30T09:58:00,mcc,65.88
2023-10-30T09:59:00,mcc,63.78
2023-10-30T10:00:00,mcc,68.62
2023-10-30T10:01:00,mcc,70.18
2023-10-30T10:02:00,mcc,58.95
2023-10-30T10:03:00,mcc,58.30
2023-10-30T10:04:00,mcc,61.73
2023-10-30T10:05:00,mcc,60.15
2023-10-30T10:06:00,mcc,67.72
2023-10-30T10:07:00,mcc,69.63
2023-10-30T10:08:00,mcc,60.77
2023-10-30T10:09:00,mcc,61.71
2023-10-30T10:10:00,mcc,67.11
2023-10-30T10:11:00,mcc,66.94
2023-10-30T10:12:00,mcc,65.04
2023-10-30T10:13:00,mcc,66.52
2023-10-30T10:14:00,mcc,70.16
2023-10-30T10:15:00,mcc,58.08
2023-10-30T10:16:00,mcc,58.93
2023-10-30T10:17:00,mcc,57.43
2023-10-30T10:18:00,mcc,69.40
2023-10-30T10:19:00,mcc,67.08
2023-10-30T10:20:00,mcc,59.77
2023-10-30T10:21:00,mcc,63.72
2023-10-30T10:22:00,mcc,62.40
2023-10-30T10:23:00,mcc,64.50
2023-10-30T10:24:00,mcc,82.71
2023-10-30T10:25:00,mcc,73.39
2023-10-30T10:26:00,mcc,66.08
2023-10-30T10:27:00,mcc,65.34
2023-10-30T10:28:00,mcc,64.72
2023-10-30T10:29:00,mcc,65.70
2023-10-30T10:30:00,mcc,67.44
2023-10-30T10:31:00,mcc,76.16
2023-10-30T10:32:00,mcc,65.57
2023-10-30T10:33:00,mcc,69.64
2023-10-30T10:34:00,mcc,75.76
2023-10-30T10:35:00,mcc,59.53
2023-10-30T10:36:00,mcc,60.97
2023-10-30T10:37:00,mcc,66.71
2023-10-30T10:38:00,mcc,60.95
2023-10-30T10:39:00,mcc,61.24
2023-10-30T10:40:00,mcc,75.07
2023-10-30T10:41:00,mcc,60.02
2023-10-30T10:42:00,mcc,61.91
2023-10-30T10:43:00,mcc,72.50
2023-10-30T10:44:00,mcc,65.34
2023-10-30T10:45:00,mcc,65.63
2023-10-30T10:46:00,mcc,65.94
2023-10-30T10:47:00,mcc,63.17
2023-10-30T10:48:00,mcc,61.46
2023-10-30T10:49:00,mcc,63.77
2023-10-30T10:50:00,mcc,64.32
2023-10-30T10:51:00,mcc,60.51
2023-10-30T10:52:00,mcc,70.94
2023-10-30T10:53:00,mcc,61.97
2023-10-30T10:54:00,mcc,62.94
2023-10-30T10:55:00,mcc,61.15
2023-10-30T10:56:00,mcc,59.78
2023-10-30T10:57:00,mcc,62.90
2023-10-30T10:58:00,mcc,63.36
2023-10-30T10:59:00,mcc,63.52
2023-10-30T11:00:00,mcc,65.11
2023-10-30T11:01:00,mcc,64.99
2023-10-30T11:02:00,mcc,61.28
2023-10-30T11:03:00,mcc,62.02
2023-10-30T11:04:00,mcc,67.76
2023-10-30T11:05:00,mcc,70.94
2023-10-30T11:06:00,mcc,70.80
2023-10-30T11:07:00,mcc,67.87
2023-10-30T11:08:00,mcc,69.77
2023-10-30T11:09:00,mcc,69.55
2023-10-30T11:10:00,mcc,69.81
2023-10-30T11:11:00,mcc,77.96
2023-10-30T11:12:00,mcc,66.74
2023-10-30T11:13:00,mcc,69.18
2023-10-30T11:14:00,mcc,68.93
2023-10-30T11:15:00,mcc,65.64
2023-10-30T11:16:00,mcc,67.18
2023-10-30T11:17:00,mcc,66.93
2023-10-30T11:18:00,mcc,66.21
2023-10-30T11:19:00,mcc,75.28
2023-10-30T11:20:00,mcc,65.29
2023-10-30T11:21:00,mcc,75.87
2023-10-30T11:22:00,mcc,74.08
2023-10-30T11:23:00,mcc,74.85
2023-10-30T11:24:00,mcc,71.71
2023-10-30T11:25:00,mcc,76.10
2023-10-30T11:26:00,mcc,77.05
2023-10-30T11:27:00,mcc,81.05
2023-10-30T11:28:00,mcc,63.84
2023-10-30T11:29:00,mcc,66.80
2023-10-30T11:30:00,mcc,83.21
2023-10-30T11:31:00,mcc,77.76
2023-10-30T11:32:00,mcc,66.66
2023-10-30T11:33:00,mcc,74.05
2023-10-30T11:34:00,mcc,68.99
2023-10-30T11:35:00,mcc,69.47
2023-10-30T11:36:00,mcc,73.48
2023-10-30T11:37:00,mcc,84.80
2023-10-30T11:38:00,mcc,70.82
2023-10-30T11:39:00,mcc,87.93
2023-10-30T11:40:00,mcc,69.92
2023-10-30T11:41:00,mcc,87.22
2023-10-30T11:42:00,mcc,72.27
2023-10-30T11:43:00,mcc,70.28
2023-10-30T11:44:00,mcc,68.91
2023-10-30T11:45:00,mcc,70.36
2023-10-30T11:46:00,mcc,70.30
2023-10-30T11:47:00,mcc,70.73
2023-10-30T11:48:00,mcc,71.05
2023-10-30T11:49:00,mcc,69.70
2023-10-30T11:50:00,mcc,71.15
2023-10-30T11:51:00,mcc,71.28
2023-10-30T11:52:00,mcc,72.28
2023-10-30T11:53:00,mcc,71.58
2023-10-30T11:54:00,mcc,67.56
2023-10-30T11:55:00,mcc,70.85
2023-10-30T11:56:00,mcc,68.24
2023-10-30T11:57:00,mcc,69.60
2023-10-30T11:58:00,mcc,64.06
2023-10-30T11:59:00,mcc,64.64
2023-10-30T12:00:00,mcc,65.08
2023-10-30T12:01:00,mcc,66.05
2023-10-30T12:02:00,mcc,69.60
2023-10-30T12:03:00,mcc,69.79
2023-10-30T12:04:00,mcc,70.58
2023-10-30T12:05:00,mcc,70.11
2023-10-30T12:06:00,mcc,72.13
2023-10-30T12:07:00,mcc,77.40
2023-10-30T12:08:00,mcc,78.09
2023-10-30T12:09:00,mcc,68.17
2023-10-30T12:10:00,mcc,78.53
2023-10-30T12:11:00,mcc,88.71
2023-10-30T12:12:00,mcc,81.57
2023-10-30T12:13:00,mcc,68.39
2023-10-30T12:14:00,mcc,64.51
2023-10-30T12:15:00,mcc,67.12
2023-10-30T12:16:00,mcc,69.31
2023-10-30T12:17:00,mcc,78.17
2023-10-30T12:18:00,mcc,67.52
2023-10-30T12:19:00,mcc,69.09
2023-10-30T12:20:00,mcc,73.46
2023-10-30T12:21:00,mcc,67.03
2023-10-30T12:22:00,mcc,65.76
2023-10-30T12:23:00,mcc,77.06
2023-10-30T12:24:00,mcc,73.25
2023-10-30T12:25:00,mcc,64.04
2023-10-30T12:26:00,mcc,67.55
2023-10-30T12:27:00,mcc,75.17
2023-10-30T12:28:00,mcc,65.86
2023-10-30T12:29:00,mcc,75.13
2023-10-30T12:30:00,mcc,66.99
2023-10-30T12:31:00,mcc,71.65
2023-10-30T12:32:00,mcc,68.41
2023-10-30T12:33:00,mcc,66.36
2023-10-30T12:34:00,mcc,65.40
2023-10-30T12:35:00,mcc,74.87
2023-10-30T12:36:00,mcc,66.63
2023-10-30T12:37:00,mcc,65.43
2023-10-30T12:38:00,mcc,72.78
2023-10-30T12:39:00,mcc,71.40
2023-10-30T12:40:00,mcc,70.48
2023-10-30T12:41:00,mcc,75.55
2023-10-30T12:42:00,mcc,69.86
2023-10-30T12:43:00,mcc,68.99
2023-10-30T12:44:00,mcc,71.77
2023-10-30T12:45:00,mcc,70.88
2023-10-30T12:46:00,mcc,78.47
2023-10-30T12:47:00,mcc,77.04
2023-10-30T12:48:00,mcc,66.76
2023-10-30T12:49:00,mcc,82.85
2023-10-30T12:50:00,mcc,79.95
2023-10-30T12:51:00,mcc,81.16
2023-10-30T12:52:00,mcc,79.59
2023-10-30T12:53:00,mcc,77.59
2023-10-30T12:54:00,mcc,69.85
2023-10-30T12:55:00,mcc,67.85
2023-10-30T12:56:00,mcc,70.88
2023-10-30T12:57:00,mcc,70.02
2023-10-30T12:58:00,mcc,71.38
2023-10-30T12:59:00,mcc,68.67
2023-10-30T13:00:00,mcc,76.32
2023-10-30T13:01:00,mcc,75.43
2023-10-30T13:02:00,mcc,69.07
2023-10-30T13:03:00,mcc,70.71
2023-10-30T13:04:00,mcc,72.59
2023-10-30T13:05:00,mcc,80.44
2023-10-30T13:06:00,mcc,67.46
2023-10-30T13:07:00,mcc,65.97
2023-10-30T13:08:00,mcc,68.78
2023-10-30T13:09:00,mcc,68.66
2023-10-30T13:10:00,mcc,66.48
2023-10-30T13:11:00,mcc,68.09
2023-10-30T13:12:00,mcc,74.09
2023-10-30T13:13:00,mcc,68.72
2023-10-30T13:14:00,mcc,69.31
2023-10-30T13:15:00,mcc,66.93
2023-10-30T13:16:00,mcc,68.17
2023-10-30T13:17:00,mcc,66.40
2023-10-30T13:18:00,mcc,81.76